Location: Wilhelmshaven
(53.5279°N, 8.1063°E)
Time: 22:34:44
(UTC+02:00)

ISS - Pass Details

Date: 13 July 2022
Orbit: 412 x 420 km, 51.6° (Epoch: 19 August)

Event Time Altitude Azimuth Distance (km) Brightness Sun altitude
Rises 23:14:09 0° 223° (SW) 2,343 -0.1 -9.0°
Reaches altitude 10° 23:16:26 10° 211° (SSW) 1,485 -1.2 -9.1°
Maximum altitude 23:19:16 26° 152° (SSE) 858 -2.8 -9.4°
Drops below altitude 10° 23:22:08 10° 94° (E) 1,496 -1.3 -9.6°
Sets 23:24:26 0° 81° (E) 2,364 -0.2 -9.7°
